Find Starlink 34946

NORAD ID: 65367 Int'l Des: 2025-190 Owner: SPXS Country: US Constellation: starlink operational
LEOCIRCULAR

現在のビュー

3D地球を読み込み中...

About Starlink 34946

Starlink 34946 (NORAD 65367) is a starlink constellation satellite (v2 mini) launched Aug 28, 2025 by SPXS of US. It operates in LEO, CIRCULAR orbit with a mass of 575.00 kg.

次回通過

Passes for default location (London). Set your location on the main map for personalized predictions.

高度履歴

Loading altitude history...

軌道要素

1 65367U 25190S 26265.40547226 .00013337 00000-0 40520-3 0 9996
2 65367 53.1605 330.8808 0001601 55.2482 304.8671 15.34397010 59920
Epoch: Sep 22, 2026 • Age: 10 hours

現在のステータス

高度 465.3 km
遠地点 / 近地点 N/A
速度 7.64 km/s
衛星直下点 36.45°N, 178.6°E
打ち上げ日 Aug 28, 2025
運用期間 1 year
タイプ internet

技術仕様

分類 Payload
質量 575.00 kg
乾燥質量 530.00 kg
長さ 0.30 m
スパン 29.00 m
形状 ? Box + pan
製造者 SPXS
バスタイプ Starlink V2MO
フェーズステータス In Orbit
所有者/国 SPXS/US

Most Searched